Home   Weather   Zürich   Past weeks
Flag for Switzerland

Past Weather in Zürich, Zurich, Switzerland — Yesterday and Last 2 Weeks

Now
35 °F

Chilly.


Feels Like: 35 °F
Forecast: 31 / 40 °F
Wind: 2 mph from West

Location: Zuerich-Fluntern

Current Time: Dec 16, 2018 at 12:07:34 pm

Latest Report: Dec 16, 2018 at 11:00 am


Visibility: N/A

Pressure: 30.02 "Hg

Humidity: 94%

Dew Point: 33 °F

Location of ZürichLocation

Past Weather in Zürich — Graph

°F

Zürich Temperature Yesterday

Maximum temperature yesterday: 29 °F (at 2:00 pm)
Minimum temperature yesterday: 24 °F (at 9:00 pm)
Average temperature yesterday: 27 °F

High & Low Weather Summary for the Past Weeks

 TemperatureHumidityPressure
High55 °F (Dec 3, 2:00 pm)97% (Dec 1, 11:00 am)30.34 "Hg (Dec 1, 11:00 am)
Low24 °F (Dec 15, 9:00 pm)61% (Dec 13, 1:00 pm)29.76 "Hg (Dec 9, 4:00 am)
Average39 °F83%30.11 "Hg
* Reported Dec 1 10:00 am — Dec 16 10:00 am, Zürich. Weather by CustomWeather, © 2018

Note: Actual official high and low records may vary slightly from our data, if they occured in-between our weather recording intervals... More about our weather records

Advertising

Zürich Weather History for the Previous 24 Hours

Scroll right to see more
 ConditionsComfort  
Time TempWeatherWind HumidityBarometerVisibility
10:00 am
Sun, Dec 16
34 °FChilly.3 mph95%30.01 "HgN/A
9:00 am33 °FChilly.2 mph92%30.01 "HgN/A
8:00 am32 °FChilly.3 mph95%30.00 "HgN/A
7:00 am31 °FChilly.6 mph95%30.00 "HgN/A
6:00 am28 °FChilly.2 mph95%30.00 "HgN/A
5:00 am28 °FChilly.2 mph96%30.01 "HgN/A
4:00 am28 °FChilly.2 mph95%30.02 "HgN/A
3:00 am27 °FChilly.2 mph95%30.07 "HgN/A
2:00 am28 °FChilly.1 mph81%30.08 "HgN/A
1:00 am27 °FChilly.1 mph79%30.11 "HgN/A
12:00 am26 °FChilly.No wind81%30.13 "HgN/A
11:00 pm
Sat, Dec 15
25 °FCold.2 mph83%30.16 "HgN/A
10:00 pm24 °FCold.2 mph83%30.18 "HgN/A
9:00 pm24 °FCold.5 mph83%30.19 "HgN/A
8:00 pm24 °FCold.5 mph82%30.21 "HgN/A
7:00 pm26 °FOvercast.5 mph79%30.23 "HgN/A
6:00 pm27 °FChilly.5 mph74%30.24 "HgN/A
5:00 pm28 °FChilly.5 mph73%30.24 "HgN/A
4:00 pm29 °FChilly.5 mph72%30.25 "HgN/A
3:00 pm29 °FChilly.5 mph70%30.25 "HgN/A
2:00 pm29 °FChilly.6 mph70%30.24 "HgN/A
1:00 pm29 °FChilly.3 mph69%30.24 "HgN/A
12:00 pm29 °FChilly.3 mph69%30.28 "HgN/A
Weather by CustomWeather, © 2018

See weather overview